BEIDOU 20 (C18)

Last updated on Dec. 12, 2019, 4:25 a.m. UTC

1 40938U 15053A   19345.80666185 -.00000152  00000-0  00000+0 0  9998
2 40938  52.9040 286.3755 0048163 184.4287 356.1730  1.00270142 15501
UTC
Height (km)
Latitude
Longitude
Inclination
Orbital Period
UTC large
Height (km)
Speed (km/s)
/
Latitude / Longitude
Inclination (degrees)
Orbital Period (minutes)
Azimuth
Elevation
Range (km)
Doppler Factor
iOS Compass Heading
iOS Angle

Next 30 passes for location: Hong Kong

Rise time Rise Azimuth (degrees) Set time Set Azimuth (degrees) Duration Max altitude (degrees)

No matching passes for this satellites